Location: Binningen
(47.7924°N, 8.7261°E)
Time: 21:50:07
(UTC+00:00)

Cosmos 2154 Rocket - Pass Details

Date: 17 May 2021
Orbit: 965 x 997 km, 82.9° (Epoch: 23 June)

Event Time Altitude Azimuth Distance (km) Brightness Sun altitude
Rises 20:09:15 0° 353° (N) 3,716 7.9 -10.1°
Reaches altitude 10° 20:11:50 10° 357° (N) 2,759 7.1 -10.4°
Maximum altitude 20:18:05 59° 77° (ENE) 1,127 4.2 -11.2°
Enters shadow 20:23:29 14° 155° (SSE) 2,450 5.5 -11.8°
